Wind from 330 at 3 knots

Air temperature 1.0° C
Visibility: greater than 5.4 NM
Dewpoint -2.0° C

Last reported at 2014-Apr-17 02:20 UTC.
Time now 2014-Apr-17 03:59 UTC

Location: N 62°32' E 017°27'.
View on Google Maps.

See reports from other nearby stations

Tides Stations Pressure Air Temp Water Temp Dewpoint Dewpoint depression Visibility Wind Speed Wind Dir Waves Ship positions

  
sailing weather and tide predictions

SUNDSVALL-HARNOSAND FLY weather

date/time (UTC)wind fromknots sea level pressurealtimeterstation pressurevisibilityair tempwater tempwave heightnotes
2014-Apr-17 02:20 330 3 5.4 1.0
2014-Apr-17 01:50 350 2 5.4 1.0
2014-Apr-17 01:20 350 2 5.4-0.0
2014-Apr-17 00:50 330 4 5.4-0.0
2014-Apr-17 00:20 340 3 5.4-1.0
2014-Apr-16 23:50 340 3 -0.0
2014-Apr-16 23:20 340 2 -1.0
2014-Apr-16 22:50 -1.0
2014-Apr-16 22:20 350 4 -1.0
2014-Apr-16 21:50 330 4 -0.0
2014-Apr-16 21:20 340 3 1.0
2014-Apr-16 20:50 1.0
2014-Apr-16 20:20 2.0
2014-Apr-16 19:50 3.0
2014-Apr-16 19:20 160 4 4.0
2014-Apr-16 18:50 160 6 5.0
2014-Apr-16 18:20 160 5 6.0
2014-Apr-16 17:50 210 4 10.0
2014-Apr-16 17:20 210 5 10.0
2014-Apr-16 16:50 210 5 11.0
2014-Apr-16 16:20 240 8 10.0
2014-Apr-16 15:50 240 9 11.0
2014-Apr-16 15:20 230 10 11.0
2014-Apr-16 14:50 220 8 11.0
2014-Apr-16 14:20 220 10 12.0
2014-Apr-16 13:50 220 9 12.0
2014-Apr-16 13:20 190 7 12.0
2014-Apr-16 12:50 170 8 12.0
2014-Apr-16 12:20 210 11 11.0
2014-Apr-16 11:50 210 11 11.0
2014-Apr-16 11:20 210 11 11.0
2014-Apr-16 10:50 200 9 10.0
2014-Apr-16 10:20 200 8 9.0
2014-Apr-16 09:50 150 8 8.0
2014-Apr-16 09:20 150 8 7.0
2014-Apr-16 08:50 160 8 6.0
2014-Apr-16 08:20 170 4 5.0
2014-Apr-16 07:50 160 4 5.0
2014-Apr-16 07:20 4.0
2014-Apr-16 06:50 150 3 3.0
2014-Apr-16 06:20 2.0
2014-Apr-16 05:50 1.0
2014-Apr-16 05:20 -1.0
2014-Apr-16 04:50 -2.0
2014-Apr-16 04:20 320 3 -3.0
2014-Apr-16 03:50 -5.0
2014-Apr-16 03:20 5.4-4.0
2014-Apr-16 02:50 5.4-4.0
2014-Apr-16 02:20 5.4-4.0
2014-Apr-16 01:50 320 4 5.4-3.0
2014-Apr-16 01:20 330 6 5.4-3.0
2014-Apr-16 00:50 330 3 5.4-3.0
2014-Apr-16 00:20 310 4 5.4-2.0
2014-Apr-15 23:50 030 3 -3.0
2014-Apr-15 23:20 -1.0
2014-Apr-15 22:50 310 3 -2.0
2014-Apr-15 22:20 -1.0
2014-Apr-15 21:50 290 1 -0.0
2014-Apr-15 21:20 360 4 -0.0
2014-Apr-15 20:50 010 3 -0.0
2014-Apr-15 20:20 350 5 3.0
2014-Apr-15 19:50 340 6 4.0
2014-Apr-15 19:20 340 6 4.0
2014-Apr-15 18:50 320 11 5.0
2014-Apr-15 18:20 320 10 5.0
2014-Apr-15 17:50 330 13 6.0
2014-Apr-15 17:20 330 11 6.0
2014-Apr-15 16:50 350 14 7.0
2014-Apr-15 16:20 340 14 8.0
2014-Apr-15 15:50 350 15 8.0
2014-Apr-15 15:20 340 13 9.0
2014-Apr-15 14:50 320 11 8.0
2014-Apr-15 14:20 320 10 9.0
2014-Apr-15 13:50 310 9 5.4 8.0
2014-Apr-15 13:20 330 11 5.4 9.0
2014-Apr-15 12:50 340 12 10.0
2014-Apr-15 12:20 300 10 10.0
2014-Apr-15 11:50 340 13 9.0
2014-Apr-15 11:20 330 13 9.0
2014-Apr-15 10:50 330 14 9.0
2014-Apr-15 10:20 310 16 8.0
2014-Apr-15 09:50 340 14 8.0
2014-Apr-15 09:20 310 14 8.0
2014-Apr-15 08:50 320 11 8.0
2014-Apr-15 08:20 360 12 7.0
2014-Apr-15 07:50 330 15 6.0
2014-Apr-15 07:20 330 16 6.0
2014-Apr-15 06:50 330 17 5.0
2014-Apr-15 06:20 330 18 4.0
2014-Apr-15 05:50 320 14 4.0
2014-Apr-15 05:20 320 14 3.0
2014-Apr-15 04:50 320 14 2.0
2014-Apr-15 04:20 330 10 2.0
2014-Apr-15 03:50 330 12 2.0
2014-Apr-15 03:20 330 12 5.4 2.0